Temperature
15 15 15 14 14 14 14 13 13 13 14 14 14 14 14 15 15 15 15 15 16 16 16 16 16 17 17 17 17 17 17 17 17 17 17 18 18 18 18 18 18 18 18
15 15 14 14 14 13 13 13 13 13 13 13 13 13 14 14 14 14 14 15 15 15 16 16 16 16 16 17 17 17 17 17 17 17 17 17 17 18 18 18 18 18 18
15 14 14 14 13 13 13 13 13 13 13 13 13 13 13 14 14 14 14 14 14 15 15 15 15 16 16 16 16 16 16 16 17 17 17 17 17 17 18 18 18 18 17
15 14 14 14 13 13 13 13 12 12 12 12 12 13 13 13 13 13 14 14 14 15 15 15 15 15 16 16 16 16 16 16 16 16 16 17 17 17 17 17 17 17 17
15 14 14 13 13 13 13 13 12 12 12 12 12 12 12 13 13 13 13 14 14 14 14 15 15 15 15 15 16 16 16 16 16 16 16 16 16 17 17 17 17 17 17
14 14 14 13 13 13 13 13 12 12 12 12 12 12 12 12 13 13 13 13 14 14 14 14 15 15 15 15 15 15 15 15 16 16 16 16 16 16 17 17 17 17 17
14 14 14 13 13 13 13 13 12 12 12 12 12 12 12 12 12 13 13 13 13 14 14 14 14 14 14 15 15 15 15 15 15 15 16 16 16 16 16 17 16 16 16
15 14 14 13 13 13 13 13 12 12 12 12 12 12 12 12 12 12 12 13 13 13 13 14 14 14 14 14 14 15 15 15 15 15 15 15 15 15 16 16 16 16 16
15 14 14 14 13 13 13 13 12 12 12 12 12 12 12 12 12 12 12 12 13 13 13 13 14 14 14 14 14 14 14 15 15 15 15 15 15 15 15 15 15 15 15
15 15 14 14 13 13 13 12 12 12 12 12 12 12 12 12 12 12 12 12 12 12 13 13 13 13 14 14 14 14 14 14 14 15 15 15 15 15 15 15 15 15 15
15 15 14 14 13 13 13 12 12 12 12 12 12 12 12 12 12 12 12 12 12 12 12 12 13 13 13 13 14 14 14 14 14 14 14 14 14 14 14 15 15 15 15
15 15 14 14 14 13 13 12 12 12 12 11 11 11 11 11 12 12 12 12 12 12 12 12 12 13 13 13 13 14 14 14 14 14 14 14 14 14 14 14 14 14 14
15 15 15 14 14 13 13 13 12 12 12 11 11 11 11 11 11 11 11 12 12 12 12 12 12 12 13 13 13 13 13 14 14 14 14 14 14 14 14 14 14 14 14
15 15 15 14 14 13 13 13 12 12 12 12 11 11 11 11 11 11 11 11 11 12 12 12 12 12 12 13 13 13 13 13 13 13 13 13 13 14 14 14 14 14 14
16 15 15 14 14 14 13 13 12 12 12 12 11 11 11 11 11 11 11 11 11 11 11 12 12 12 12 12 12 13 13 13 13 13 13 13 13 13 13 13 14 14 14
16 15 15 15 14 14 13 13 13 12 12 12 11 11 11 11 11 11 11 11 11 11 11 12 12 12 12 12 12 12 12 13 13 13 13 13 13 13 13 13 13 13 13
16 16 15 15 14 14 14 13 13 12 12 12 11 11 11 11 11 11 11 11 11 11 11 11 11 12 12 12 12 12 12 12 12 12 13 13 13 13 13 13 13 13 13
16 16 15 15 14 14 14 13 13 12 12 12 11 11 11 11 11 11 11 11 11 11 11 11 11 11 11 11 11 12 12 12 12 12 12 12 12 12 13 13 13 13 13
16 16 15 15 15 14 14 13 13 12 12 12 11 11 11 11 11 11 11 11 11 11 11 11 11 11 11 11 11 11 12 12 12 12 12 12 12 12 12 12 12 12 12
17 16 16 15 15 14 14 13 13 12 12 12 11 11 11 11 11 11 11 11 11 11 11 11 11 11 11 11 11 11 11 12 12 12 12 12 12 12 12 12 12 12 12
17 16 16 15 15 15 14 14 13 13 12 12 11 11 11 11 11 11 11 11 11 11 11 11 11 11 11 11 11 11 11 11 11 12 12 12 12 12 12 12 12 12 12
17 17 16 16 15 15 14 14 13 13 12 12 12 11 11 11 11 11 11 11 11 11 11 11 11 11 11 11 11 11 11 11 11 11 11 11 11 11 11 11 11 11 11
17 17 16 16 16 15 15 14 14 13 13 12 12 12 11 11 11 11 11 11 11 11 11 11 11 11 11 11 11 11 11 11 11 11 11 11 11 11 11 11 11 11 11
18 17 17 16 16 16 15 15 14 14 13 13 12 12 12 12 11 11 11 11 11 11 11 11 11 11 11 11 11 11 11 11 11 11 11 11 11 11 11 11 11 11 11
18 18 17 17 16 16 16 15 14 14 13 13 13 12 12 12 12 11 11 11 11 11 11 11 11 11 11 11 11 11 11 11 11 11 11 11 11 11 11 11 11 11 11
18 18 17 17 17 16 16 15 15 14 14 13 13 13 12 12 12 11 11 11 11 11 11 11 11 11 11 11 11 11 10 10 10 10 11 10 10 10 10 10 10 10 10
Wind_Speed
3 4 5 6 6 7 8 8 9 9 7 6 5 5 5 5 5 4 6 6 6 6 4 4 4 4 5 5 5 4 4 3 2 2 0 1 0 3 4 5 5 7 11
5 6 6 6 6 6 7 8 9 9 8 6 5 4 4 4 4 4 5 5 5 5 4 4 4 5 4 5 6 5 4 3 4 3 2 0 1 1 2 3 5 6 7
3 4 5 6 6 6 7 7 8 9 9 8 6 5 4 4 4 4 4 4 5 4 3 3 4 4 4 5 6 6 6 5 4 4 4 4 4 2 1 2 3 5 5
2 3 5 6 6 6 6 6 7 8 8 8 6 6 5 5 5 5 4 5 4 3 3 2 3 4 4 5 6 6 5 5 5 3 3 3 3 3 2 1 1 3 5
2 3 5 5 6 6 6 6 7 7 8 8 7 6 5 5 5 5 5 5 5 4 3 2 2 3 3 5 6 6 6 5 5 4 3 3 2 2 3 2 1 1 2
2 4 5 5 5 6 6 6 7 7 8 8 8 6 7 7 7 6 5 5 4 4 4 3 2 2 2 3 5 6 7 6 6 5 4 4 4 4 4 3 3 2 2
2 4 5 6 6 7 7 6 7 8 9 9 8 8 7 6 6 6 5 5 4 4 4 3 3 2 2 3 3 4 6 7 7 7 5 5 5 4 4 4 3 2 1
2 3 4 4 5 6 6 6 7 7 8 9 8 8 7 5 4 5 5 4 4 4 4 4 3 3 2 2 2 3 4 5 6 7 7 5 5 4 4 4 4 3 1
3 3 4 4 4 5 6 5 6 6 8 8 8 8 8 7 7 7 6 4 4 4 5 4 4 3 3 2 1 2 2 3 5 5 6 5 4 4 4 4 4 5 4
3 4 4 4 4 4 4 5 5 5 6 7 7 7 8 8 7 7 7 7 6 6 6 5 5 4 3 2 0 1 2 2 3 4 5 4 4 4 4 4 3 4 4
4 4 4 4 4 4 4 4 5 5 6 7 7 8 8 8 8 8 8 7 6 7 7 6 6 5 4 3 1 0 1 2 2 3 4 4 4 4 4 4 4 3 3
4 3 3 3 3 3 3 4 4 4 5 6 6 7 7 8 8 8 8 8 8 7 7 7 6 5 5 4 3 2 1 1 2 3 3 3 4 4 4 4 4 4 4
3 2 2 3 3 3 3 3 3 3 4 5 6 7 8 8 8 8 8 8 8 8 8 7 7 6 5 4 3 3 2 2 2 2 2 2 3 3 3 4 4 4 4
4 3 2 3 3 3 2 2 2 2 3 4 6 6 7 7 7 7 7 8 8 8 8 8 8 7 6 6 5 4 4 4 4 3 2 2 2 3 3 3 4 4 4
4 4 3 3 3 2 2 0 1 1 2 4 5 6 6 6 7 7 7 8 8 9 8 8 8 8 6 6 6 5 5 5 5 4 3 2 2 3 3 3 4 4 4
5 4 3 2 3 2 1 1 1 0 2 3 4 5 6 7 7 7 7 7 8 8 8 8 8 8 7 10 10 7 6 6 6 5 4 3 3 3 4 5 6 6 6
6 5 4 3 3 3 3 3 2 1 2 3 3 4 5 6 7 7 7 8 7 8 8 9 9 8 9 13 13 11 7 6 6 5 4 4 4 5 5 6 7 7 7
7 6 4 3 3 3 3 4 3 2 2 2 2 4 4 5 6 6 7 6 5 6 6 8 8 8 10 13 13 12 8 7 7 6 5 5 4 5 6 7 7 6 5
8 6 5 4 3 4 5 5 3 2 2 1 1 2 3 4 5 6 6 4 4 5 6 6 8 8 9 13 13 10 6 7 7 7 6 6 6 9 9 8 8 8 6
7 6 5 4 4 5 6 6 4 3 2 2 1 1 1 2 3 4 4 4 3 4 5 7 7 8 8 12 12 10 5 6 5 6 7 9 9 9 8 7 7 7 5
8 7 6 5 5 6 7 6 5 4 4 3 2 0 1 1 2 3 3 3 4 5 5 6 7 8 9 11 12 10 5 5 5 5 5 5 10 10 10 8 6 6 6
9 8 6 6 5 7 7 7 6 6 5 3 2 1 1 1 1 3 3 3 4 5 5 5 5 6 7 9 10 12 10 7 5 4 4 4 9 10 10 7 8 10 8
10 8 7 7 6 7 8 8 7 6 5 4 3 2 1 0 1 2 2 3 3 3 3 3 3 4 5 7 11 11 10 9 5 4 6 8 9 9 7 9 10 8 6
9 8 8 7 7 7 8 8 8 7 6 5 4 3 3 1 0 1 1 2 2 2 1 2 2 2 3 4 5 5 5 7 6 4 6 9 10 8 8 7 6 5 4
9 8 9 9 9 8 8 8 8 7 6 5 5 4 4 4 2 1 1 1 2 2 2 1 1 0 2 3 4 3 3 3 2 3 4 5 4 5 5 4 5 4 4
10 9 10 10 9 8 9 9 8 8 7 5 5 5 4 4 3 2 1 2 3 3 3 3 3 2 2 3 3 3 4 4 4 5 4 3 3 3 3 3 3 3 3
Wind_Direction
357 4 6 10 5 359 354 349 346 341 340 334 328 322 319 313 309 297 296 291 284 271 249 243 227 217 212 208 198 191 195 202 177 132 82 330 264 187 187 184 179 189 195
7 1 359 0 357 349 345 347 345 340 338 329 313 290 291 290 289 295 311 307 298 282 257 233 227 219 211 208 200 191 182 186 175 154 140 180 311 283 209 183 182 187 185
11 348 346 346 344 342 339 343 337 336 334 333 329 328 324 315 324 322 322 313 312 302 278 243 229 220 208 208 207 199 186 187 187 168 157 164 207 232 271 201 187 182 176
350 335 335 338 337 331 330 333 334 336 335 338 339 341 339 323 306 305 308 316 322 313 304 264 233 223 213 210 214 207 196 182 186 184 188 177 171 165 200 290 191 185 178
324 330 327 325 327 328 332 334 334 337 336 337 336 334 329 314 310 315 321 325 325 317 319 302 258 234 223 219 212 202 196 195 187 180 172 182 196 175 164 189 207 204 197
310 323 325 327 328 330 335 339 340 339 339 341 342 341 334 331 334 338 335 329 321 321 327 319 299 263 234 227 219 205 197 201 195 190 181 176 176 187 173 178 192 200 218
292 317 325 329 330 334 339 341 344 342 342 346 348 346 340 339 339 332 330 332 326 322 321 327 318 299 259 236 220 205 199 197 193 194 199 198 201 178 167 160 167 180 205
274 300 309 316 321 328 337 343 345 340 343 348 346 347 350 348 342 337 340 336 327 322 329 334 327 318 297 263 222 208 204 194 197 201 196 198 202 188 175 164 156 158 188
256 284 301 312 318 325 330 336 342 342 345 348 347 351 356 358 354 352 355 350 340 345 349 347 344 339 331 309 231 214 206 193 195 195 190 191 195 184 175 164 162 159 177
257 280 292 300 306 316 326 338 344 344 344 353 356 3 358 358 358 3 2 358 356 357 354 351 352 355 350 341 316 227 211 187 194 187 182 186 184 177 173 171 168 163 164
243 269 282 293 302 321 331 343 349 353 356 358 357 3 2 1 6 9 5 2 2 5 5 359 359 359 356 351 355 288 184 178 174 167 172 181 178 174 174 168 165 169 161
231 248 267 302 316 321 325 337 348 357 358 1 6 6 3 4 10 8 3 4 8 9 8 8 11 10 6 9 22 27 48 150 154 152 154 169 171 170 175 176 175 177 173
223 245 276 293 296 299 314 332 347 359 4 11 15 11 6 6 6 4 3 7 11 11 12 14 16 13 12 20 31 39 46 77 103 119 131 154 153 170 177 180 179 177 176
210 214 253 276 278 287 301 324 352 358 12 20 21 15 5 2 2 4 5 7 10 14 14 13 15 16 23 29 39 49 56 65 76 82 97 118 145 170 171 172 172 169 166
201 207 224 253 263 285 306 331 16 11 23 28 22 10 2 3 6 10 10 11 13 16 11 15 18 18 27 34 44 57 66 68 70 65 65 71 101 142 155 163 168 159 155
199 202 196 217 238 244 229 161 128 41 42 38 18 9 10 10 9 7 10 14 14 12 19 23 22 25 32 42 52 63 68 67 68 63 52 54 59 88 115 128 133 145 149
195 192 193 214 227 219 187 168 168 120 72 46 20 13 13 13 7 10 15 14 13 17 23 21 25 28 30 46 53 60 65 62 54 49 47 54 58 68 85 94 93 90 104
189 191 196 212 217 186 162 153 140 116 93 51 16 12 16 12 8 14 14 10 12 18 21 23 25 30 33 44 52 58 60 60 51 45 47 59 53 72 90 91 81 73 70
189 193 194 197 186 164 156 140 129 122 113 71 356 355 13 16 13 12 6 6 18 24 24 24 29 31 25 36 49 58 59 58 47 43 45 55 62 75 88 95 93 83 70
184 184 183 179 165 165 153 139 148 149 172 212 240 293 358 18 12 7 7 9 24 28 32 36 28 28 24 32 47 58 63 59 46 39 40 49 61 67 74 92 100 96 84
187 179 173 178 182 168 153 151 170 193 209 204 194 234 325 351 14 20 19 22 33 39 39 40 28 26 23 27 40 50 59 62 58 49 36 39 57 65 70 79 89 100 98
184 178 175 191 189 171 161 169 196 213 207 190 183 207 289 326 49 47 31 33 46 50 41 40 28 19 16 23 36 47 52 57 66 53 32 41 59 67 70 79 92 92 91
187 183 182 192 197 188 175 182 207 206 196 188 195 206 209 350 50 71 59 48 48 56 43 45 34 9 8 15 31 41 46 47 56 51 55 60 62 63 66 80 88 89 91
190 188 183 194 206 205 200 199 199 193 186 194 204 202 193 210 341 84 92 91 75 65 50 46 29 9 8 7 8 14 26 33 40 43 47 54 59 63 63 68 70 71 90
195 188 190 200 210 207 208 209 197 184 184 195 204 200 195 192 193 194 211 189 213 201 189 211 217 58 357 327 344 15 19 17 26 55 53 49 51 57 56 58 62 66 75
195 196 200 205 209 204 208 209 198 185 183 194 203 201 197 197 193 194 255 296 257 261 229 211 202 236 249 299 355 18 22 32 72 80 71 67 69 75 79 83 74 68 82
Height
1561 1559 1555 1552 1549 1545 1541 1537 1533 1530 1526 1523 1520 1517 1515 1514 1513 1512 1511 1511 1511 1511 1512 1513 1514 1516 1517 1519 1521 1523 1526 1528 1531 1534 1536 1538 1540 1542 1544 1545 1547 1549 1550
1560 1558 1555 1551 1547 1544 1540 1536 1532 1528 1525 1521 1518 1516 1513 1511 1509 1508 1508 1507 1507 1507 1507 1508 1509 1511 1512 1514 1516 1518 1520 1524 1527 1529 1532 1534 1537 1538 1540 1542 1544 1545 1547
1560 1557 1554 1550 1547 1543 1539 1535 1532 1528 1524 1520 1517 1514 1511 1508 1507 1505 1504 1504 1504 1503 1503 1504 1505 1506 1508 1509 1511 1514 1516 1519 1522 1525 1528 1530 1531 1534 1536 1537 1540 1542 1543
1559 1556 1553 1550 1546 1542 1539 1535 1531 1527 1523 1519 1516 1512 1509 1506 1505 1503 1502 1501 1500 1500 1500 1501 1501 1502 1503 1505 1507 1509 1511 1514 1517 1520 1523 1526 1527 1530 1531 1533 1535 1538 1540
1559 1556 1553 1549 1546 1542 1538 1535 1531 1527 1523 1519 1515 1512 1509 1506 1504 1502 1500 1498 1498 1498 1497 1497 1498 1499 1499 1501 1502 1504 1506 1509 1512 1514 1517 1520 1523 1525 1527 1528 1531 1534 1535
1558 1556 1553 1549 1546 1542 1538 1534 1530 1527 1522 1519 1515 1511 1508 1505 1502 1500 1498 1497 1496 1495 1495 1494 1495 1495 1496 1497 1498 1500 1502 1504 1507 1509 1512 1515 1518 1520 1522 1524 1527 1529 1531
1558 1555 1552 1549 1545 1542 1538 1534 1530 1527 1523 1519 1515 1511 1508 1505 1502 1499 1497 1496 1494 1493 1492 1492 1492 1492 1492 1493 1494 1496 1498 1500 1502 1505 1507 1510 1513 1516 1519 1521 1523 1525 1527
1557 1555 1552 1549 1545 1542 1538 1534 1531 1527 1523 1519 1515 1512 1508 1505 1502 1500 1497 1496 1494 1492 1491 1490 1489 1489 1490 1490 1491 1492 1494 1496 1498 1500 1502 1505 1508 1511 1514 1516 1519 1521 1523
1557 1554 1552 1549 1546 1542 1539 1535 1531 1528 1524 1520 1516 1513 1509 1506 1503 1501 1498 1496 1493 1491 1490 1489 1488 1487 1487 1487 1488 1489 1491 1492 1494 1497 1499 1501 1503 1507 1509 1512 1515 1518 1519
1556 1554 1552 1549 1546 1543 1539 1536 1532 1529 1525 1521 1518 1514 1511 1507 1504 1501 1499 1496 1493 1491 1489 1488 1486 1485 1485 1485 1486 1486 1488 1490 1492 1493 1495 1497 1500 1502 1505 1508 1510 1513 1516
1555 1553 1551 1549 1546 1543 1540 1537 1533 1530 1526 1523 1519 1515 1512 1508 1505 1502 1500 1497 1494 1492 1489 1487 1485 1484 1483 1483 1483 1484 1486 1487 1489 1491 1492 1494 1496 1499 1501 1504 1507 1509 1512
1554 1553 1551 1549 1546 1544 1541 1537 1534 1531 1527 1524 1520 1517 1513 1510 1507 1504 1501 1498 1495 1492 1490 1488 1485 1484 1483 1482 1482 1483 1484 1486 1487 1488 1490 1492 1494 1496 1498 1501 1503 1506 1508
1554 1552 1551 1549 1546 1544 1541 1538 1535 1532 1528 1525 1521 1518 1514 1511 1508 1505 1502 1499 1496 1494 1491 1488 1486 1484 1483 1482 1482 1483 1484 1485 1486 1487 1489 1491 1492 1494 1496 1498 1500 1503 1505
1553 1551 1550 1548 1546 1544 1542 1539 1536 1533 1530 1526 1523 1519 1516 1513 1510 1507 1504 1501 1498 1495 1492 1489 1487 1485 1484 1483 1483 1483 1484 1485 1486 1487 1489 1490 1491 1493 1494 1496 1498 1500 1503
1551 1550 1549 1548 1546 1544 1542 1539 1536 1534 1531 1527 1524 1521 1518 1515 1512 1509 1506 1503 1500 1497 1494 1491 1489 1487 1486 1485 1485 1485 1485 1486 1487 1488 1489 1490 1491 1492 1493 1495 1496 1498 1500
1550 1549 1548 1547 1545 1544 1542 1539 1537 1534 1532 1529 1526 1523 1520 1517 1514 1511 1508 1505 1502 1499 1496 1494 1492 1490 1489 1488 1487 1486 1487 1487 1487 1488 1489 1489 1490 1491 1493 1494 1496 1497 1499
1548 1547 1547 1546 1545 1543 1542 1540 1537 1535 1532 1530 1527 1524 1522 1519 1516 1513 1511 1508 1505 1502 1499 1497 1495 1494 1492 1491 1490 1489 1488 1488 1489 1489 1489 1490 1490 1491 1493 1494 1495 1497 1498
1546 1546 1545 1545 1544 1543 1541 1540 1538 1535 1533 1530 1528 1526 1523 1521 1518 1516 1513 1511 1508 1506 1503 1501 1499 1497 1496 1495 1493 1492 1491 1491 1491 1491 1491 1491 1492 1493 1494 1495 1496 1497 1499
1544 1544 1544 1544 1543 1542 1541 1539 1538 1536 1533 1531 1529 1527 1525 1523 1520 1518 1516 1514 1511 1509 1507 1505 1503 1501 1499 1498 1497 1495 1494 1494 1494 1494 1494 1494 1494 1495 1496 1497 1497 1498 1500
1542 1542 1543 1543 1542 1541 1540 1539 1537 1536 1534 1532 1530 1528 1526 1524 1522 1520 1518 1516 1514 1512 1510 1508 1506 1504 1502 1501 1500 1499 1498 1497 1496 1497 1497 1497 1497 1497 1498 1499 1500 1500 1502
1540 1541 1541 1541 1541 1540 1539 1538 1537 1536 1534 1533 1531 1529 1527 1526 1524 1522 1520 1518 1517 1515 1513 1511 1509 1507 1505 1504 1503 1502 1501 1500 1500 1500 1500 1500 1501 1501 1501 1502 1502 1503 1504
1537 1538 1539 1539 1539 1539 1538 1537 1536 1535 1534 1533 1532 1530 1528 1527 1525 1524 1522 1520 1519 1517 1515 1513 1512 1510 1508 1507 1506 1505 1504 1503 1503 1503 1503 1503 1503 1504 1504 1505 1505 1506 1507
1534 1536 1537 1537 1538 1537 1537 1536 1536 1535 1534 1533 1532 1531 1529 1528 1526 1525 1523 1522 1520 1519 1517 1515 1514 1512 1510 1509 1508 1507 1507 1506 1506 1505 1505 1506 1506 1506 1507 1507 1508 1509 1510
1532 1533 1534 1535 1535 1535 1535 1535 1534 1534 1533 1532 1531 1530 1529 1528 1527 1526 1524 1523 1521 1520 1518 1517 1515 1514 1512 1511 1510 1509 1509 1508 1508 1508 1508 1508 1508 1509 1509 1510 1511 1511 1512
1529 1530 1531 1532 1532 1533 1533 1533 1533 1532 1532 1531 1530 1530 1529 1528 1527 1526 1525 1524 1522 1521 1520 1518 1517 1515 1514 1513 1512 1511 1511 1510 1510 1510 1510 1510 1510 1511 1511 1512 1513 1513 1514
1525 1526 1528 1528 1529 1530 1530 1530 1530 1530 1530 1529 1529 1528 1528 1527 1527 1526 1525 1524 1523 1522 1520 1519 1518 1516 1515 1514 1513 1513 1512 1512 1512 1512 1511 1511 1512 1512 1513 1513 1514 1514 1515